Location: São Paulo
(23.5507°S, 46.6334°W)
Time: 08:17:01
(UTC-03:00)

Vanguard 2 Rocket - Pass Details

Date: 25 February 2026
Orbit: 553 x 3286 km, 32.9° (Epoch: 7 March)

Event Time Altitude Azimuth Distance (km) Brightness Sun altitude
Exits shadow 02:35:03 36° 119° (ESE) 1,806 8.6 -43.5°
Drops below altitude 10° 02:41:30 10° 90° (E) 3,875 10.5 -42.4°
Sets 02:45:54 0° 85° (E) 5,347 11.3 -41.6°
